Temp
5 5 5 5 5 4 4 4 3 4 4 3 2 2 2 2 1 1 0 -0 -1 -2 -2 -3 -3 -3 -4 -4 -4 -5 -5 -6 -6 -7 -8 -9 -9 -10 -11 -11 -12 -12 -12 -12
4 5 4 4 4 4 4 4 4 4 4 3 3 2 1 1 1 0 -0 -1 -2 -3 -3 -3 -4 -4 -4 -5 -5 -5 -6 -7 -7 -8 -9 -10 -10 -11 -12 -12 -12 -12 -13 -14
4 4 4 4 6 6 6 5 5 4 4 3 3 2 1 1 0 -0 -1 -2 -2 -3 -3 -4 -5 -5 -5 -5 -6 -6 -7 -8 -8 -9 -10 -10 -11 -12 -12 -13 -13 -13 -14 -14
3 3 -3 5 6 5 5 5 4 4 3 2 2 1 1 0 -0 -1 -2 -2 -3 -3 -4 -4 -5 -5 -6 -6 -7 -7 -8 -8 -9 -9 -10 -11 -12 -12 -13 -13 -13 -14 -15 -15
3 2 3 5 5 5 5 5 4 3 2 2 2 1 1 0 -1 -2 -2 -3 -3 -4 -4 -5 -6 -6 -6 -7 -7 -8 -8 -9 -10 -10 -11 -12 -12 -13 -13 -14 -14 -14 -15 -15
2 1 -5 4 5 5 4 3 4 3 2 1 1 1 0 -2 -2 -3 -3 -3 -4 -4 -5 -6 -6 -7 -7 -7 -8 -8 -9 -10 -10 -11 -12 -12 -13 -13 -14 -14 -15 -15 -15 -15
2 1 2 3 3 3 2 4 3 2 2 1 0 -0 -1 -2 -3 -3 -4 -4 -5 -6 -6 -7 -7 -7 -8 -8 -8 -9 -10 -11 -11 -11 -12 -13 -13 -14 -14 -15 -15 -15 -16 -16
2 0 1 3 2 2 2 2 1 1 0 -0 -1 -1 -2 -3 -3 -4 -4 -5 -6 -7 -7 -7 -7 -8 -8 -9 -9 -10 -11 -11 -12 -12 -12 -13 -13 -14 -15 -15 -15 -16 -16 -16
2 3 3 2 2 1 1 1 0 -0 -1 -1 -1 -2 -3 -4 -4 -4 -5 -6 -7 -8 -7 -8 -8 -8 -9 -9 -10 -11 -11 -12 -12 -12 -13 -13 -14 -14 -15 -15 -15 -16 -16 -16
1 2 2 1 1 0 -0 -0 -1 -1 -2 -2 -2 -3 -3 -3 -4 -4 -6 -8 -8 -8 -8 -8 -8 -9 -9 -10 -11 -11 -12 -12 -13 -13 -13 -14 -14 -15 -15 -15 -16 -16 -16 -16
1 1 1 0 0 -0 -1 -1 -1 -2 -2 -2 -3 -3 -3 -4 -5 -6 -8 -8 -8 -8 -8 -8 -9 -10 -10 -11 -11 -12 -12 -13 -13 -13 -13 -14 -14 -15 -15 -16 -16 -16 -16 -16
1 0 -0 -0 -0 -0 -1 -1 -2 -2 -2 -3 -4 -4 -4 -4 -7 -9 -9 -9 -9 -9 -9 -9 -10 -10 -11 -11 -12 -12 -13 -13 -13 -13 -14 -14 -15 -15 -16 -16 -16 -16 -16 -16
-0 -0 -1 -1 -1 -2 -2 -2 -2 -3 -4 -4 -4 -4 -4 -6 -9 -10 -10 -10 -10 -9 -9 -10 -10 -11 -12 -12 -13 -13 -13 -13 -13 -14 -14 -15 -15 -15 -16 -16 -16 -16 -16 -16
-0 -1 -1 -1 -2 -2 -2 -3 -3 -4 -4 -4 -4 -5 -8 -9 -11 -11 -10 -10 -9 -10 -10 -11 -11 -12 -12 -13 -13 -13 -13 -14 -14 -14 -14 -15 -15 -16 -16 -16 -16 -16 -16 -16
-1 -1 -2 -2 -2 -3 -3 -4 -5 -4 -4 -5 -6 -8 -10 -11 -12 -11 -10 -10 -10 -10 -10 -11 -12 -12 -13 -13 -13 -13 -14 -14 -14 -14 -15 -15 -16 -16 -16 -16 -16 -16 -16 -17
-2 -2 -2 -2 -3 -4 -4 -5 -4 -5 -5 -7 -9 -10 -12 -12 -11 -10 -10 -10 -10 -11 -11 -12 -12 -13 -13 -13 -13 -13 -14 -14 -14 -15 -15 -15 -16 -16 -16 -16 -16 -16 -16 -16
-2 -2 -3 -3 -5 -5 -5 -5 -5 -7 -7 -9 -12 -12 -12 -11 -10 -10 -10 -10 -11 -11 -12 -12 -13 -13 -13 -13 -13 -14 -14 -14 -15 -15 -15 -15 -16 -16 -16 -16 -16 -16 -16 -17
-3 -4 -5 -5 -6 -5 -5 -7 -7 -7 -8 -9 -10 -11 -12 -11 -10 -11 -11 -11 -12 -12 -12 -13 -13 -13 -14 -14 -14 -14 -14 -14 -15 -15 -15 -15 -16 -16 -16 -16 -16 -16 -17 -17
-5 -6 -6 -6 -6 -7 -7 -8 -9 -9 -10 -11 -12 -11 -11 -11 -11 -11 -11 -11 -12 -12 -13 -13 -14 -14 -14 -14 -14 -14 -14 -14 -14 -15 -15 -15 -15 -16 -16 -16 -16 -16 -16 -17
-7 -8 -8 -8 -9 -9 -9 -9 -10 -11 -11 -10 -11 -11 -11 -11 -11 -11 -12 -12 -13 -14 -14 -14 -14 -14 -15 -14 -14 -14 -14 -14 -14 -15 -15 -15 -15 -16 -16 -16 -16 -16 -16 -16
-9 -9 -9 -9 -10 -10 -10 -10 -10 -10 -11 -11 -11 -11 -11 -11 -12 -12 -12 -13 -13 -14 -14 -14 -15 -15 -15 -15 -15 -15 -15 -15 -14 -15 -15 -15 -16 -16 -16 -16 -17 -17 -17 -17
-10 -10 -10 -10 -10 -10 -10 -10 -10 -11 -11 -11 -12 -12 -12 -12 -12 -13 -13 -14 -14 -15 -15 -15 -15 -15 -15 -15 -15 -15 -15 -15 -15 -15 -15 -15 -16 -16 -16 -17 -17 -17 -17 -17
-10 -10 -11 -11 -11 -11 -11 -11 -11 -12 -12 -12 -12 -13 -13 -13 -13 -14 -13 -14 -15 -15 -15 -15 -15 -15 -15 -16 -15 -15 -15 -15 -15 -15 -15 -15 -16 -16 -16 -16 -17 -17 -17 -17
-11 -11 -11 -11 -11 -12 -12 -12 -12 -13 -13 -13 -13 -13 -14 -13 -13 -14 -15 -15 -15 -16 -16 -16 -16 -16 -16 -16 -16 -16 -16 -16 -16 -16 -16 -16 -16 -16 -16 -17 -17 -17 -17 -17
-12 -12 -12 -12 -12 -12 -13 -13 -13 -13 -13 -13 -13 -13 -14 -15 -15 -15 -15 -15 -16 -16 -17 -17 -17 -17 -16 -16 -16 -16 -16 -16 -16 -16 -16 -16 -16 -16 -16 -17 -17 -17 -17 -17
-12 -12 -13 -13 -13 -13 -13 -14 -13 -13 -13 -13 -13 -14 -14 -15 -15 -16 -16 -16 -16 -17 -17 -17 -17 -17 -17 -17 -17 -16 -16 -17 -17 -16 -16 -16 -16 -16 -17 -17 -17 -18 -18 -18
-13 -13 -14 -14 -14 -14 -14 -14 -14 -14 -14 -15 -14 -15 -15 -16 -16 -16 -17 -17 -17 -17 -18 -18 -18 -18 -18 -17 -17 -17 -17 -17 -17 -17 -16 -16 -16 -16 -17 -17 -18 -18 -18 -18
Height
3121 3121 3122 3122 3122 3122 3121 3122 3121 3118 3115 3116 3116 3116 3117 3116 3116 3115 3115 3114 3113 3111 3110 3106 3102 3097 3094 3090 3084 3079 3074 3069 3062 3056 3050 3044 3036 3029 3022 3015 3009 3004 3000 2995
3118 3119 3119 3118 3118 3117 3116 3115 3114 3113 3111 3112 3111 3111 3111 3111 3110 3109 3109 3108 3107 3106 3103 3099 3094 3092 3088 3083 3078 3072 3067 3060 3054 3048 3041 3033 3026 3020 3013 3007 3001 2997 2992 2989
3115 3116 3116 3114 3112 3112 3111 3110 3110 3108 3110 3108 3107 3106 3106 3105 3104 3104 3103 3102 3102 3099 3095 3092 3089 3085 3081 3076 3070 3064 3058 3052 3046 3039 3032 3025 3018 3011 3004 2999 2994 2990 2986 2983
3112 3113 3114 3106 3106 3106 3105 3105 3104 3103 3103 3103 3102 3101 3100 3099 3098 3098 3098 3098 3096 3092 3088 3085 3081 3077 3073 3067 3062 3057 3051 3045 3037 3031 3025 3017 3011 3004 2998 2993 2988 2984 2980 2977
3109 3107 3103 3103 3103 3102 3100 3100 3100 3098 3098 3098 3096 3095 3095 3094 3093 3093 3093 3091 3089 3085 3081 3077 3073 3069 3065 3060 3055 3049 3043 3036 3030 3023 3017 3011 3005 2998 2992 2986 2981 2977 2974 2972
3106 3105 3102 3099 3099 3097 3095 3091 3094 3094 3094 3093 3092 3089 3091 3088 3088 3088 3087 3084 3080 3077 3073 3069 3065 3062 3058 3053 3047 3041 3035 3028 3022 3016 3010 3004 2997 2991 2986 2981 2976 2973 2970 2967
3101 3100 3095 3095 3094 3094 3094 3093 3089 3090 3089 3088 3086 3085 3084 3083 3082 3080 3078 3075 3071 3068 3064 3062 3059 3055 3050 3044 3039 3033 3027 3021 3015 3009 3002 2996 2991 2985 2980 2976 2972 2968 2965 2962
3096 3095 3091 3090 3089 3091 3090 3087 3086 3086 3083 3081 3079 3077 3076 3075 3073 3071 3068 3065 3062 3060 3058 3055 3051 3046 3042 3037 3032 3026 3019 3013 3008 3001 2995 2989 2984 2979 2975 2971 2967 2963 2960 2957
3093 3090 3087 3086 3087 3086 3084 3083 3081 3078 3077 3074 3073 3071 3069 3067 3064 3061 3059 3057 3056 3054 3052 3048 3044 3039 3035 3029 3023 3017 3011 3006 3000 2994 2987 2982 2977 2972 2969 2965 2962 2959 2956 2953
3085 3085 3084 3082 3080 3079 3077 3076 3074 3072 3070 3067 3066 3064 3062 3059 3057 3052 3051 3050 3050 3048 3045 3041 3037 3032 3026 3019 3014 3008 3003 2998 2992 2987 2980 2975 2970 2966 2963 2960 2956 2953 2951 2948
3078 3079 3077 3076 3073 3071 3069 3067 3065 3064 3062 3060 3058 3056 3054 3052 3046 3044 3044 3046 3045 3042 3038 3034 3028 3023 3017 3011 3006 3000 2995 2990 2985 2979 2974 2969 2965 2961 2958 2955 2952 2948 2946 2943
3072 3073 3069 3068 3066 3064 3062 3060 3057 3055 3053 3051 3050 3048 3046 3041 3038 3039 3041 3040 3038 3035 3030 3025 3020 3014 3008 3002 2997 2991 2987 2982 2976 2971 2966 2962 2958 2955 2952 2949 2946 2943 2941 2939
3065 3063 3061 3059 3057 3055 3052 3050 3048 3047 3045 3044 3042 3040 3035 3032 3032 3035 3035 3033 3031 3026 3021 3017 3011 3006 2999 2994 2988 2983 2978 2973 2968 2964 2960 2956 2953 2949 2947 2944 2941 2938 2936 2934
3058 3055 3052 3052 3048 3046 3044 3042 3041 3039 3037 3036 3034 3027 3026 3026 3029 3028 3028 3026 3022 3018 3013 3008 3003 2997 2991 2986 2980 2975 2970 2965 2961 2957 2953 2950 2947 2944 2941 2938 2936 2933 2931 2929
3051 3048 3046 3043 3041 3038 3036 3034 3033 3030 3027 3023 3022 3022 3022 3023 3023 3022 3020 3018 3013 3009 3005 2999 2994 2989 2984 2979 2974 2968 2963 2958 2954 2950 2947 2943 2941 2938 2935 2933 2930 2928 2926 2924
3042 3039 3037 3034 3031 3029 3027 3026 3025 3021 3019 3017 3016 3017 3018 3019 3016 3016 3012 3010 3007 3002 2996 2992 2986 2982 2977 2972 2967 2961 2956 2952 2948 2944 2940 2937 2934 2932 2930 2927 2925 2923 2921 2919
3033 3031 3029 3027 3025 3023 3022 3020 3016 3014 3014 3013 3014 3015 3014 3014 3012 3008 3005 3002 2997 2992 2989 2984 2979 2975 2969 2964 2959 2954 2949 2945 2941 2937 2934 2931 2928 2926 2924 2922 2920 2917 2915 2914
3027 3024 3022 3021 3020 3018 3015 3015 3014 3012 3011 3011 3011 3011 3010 3008 3005 3002 2998 2994 2990 2985 2981 2977 2972 2967 2962 2957 2952 2947 2942 2938 2934 2930 2927 2924 2922 2921 2919 2917 2915 2912 2910 2908
3019 3018 3018 3016 3015 3014 3013 3011 3011 3010 3009 3007 3006 3006 3005 3002 2999 2994 2989 2987 2983 2978 2974 2969 2964 2959 2954 2950 2944 2940 2935 2931 2927 2924 2921 2918 2916 2915 2913 2911 2909 2906 2904 2903
3017 3016 3015 3015 3014 3014 3012 3010 3009 3007 3005 3004 3002 3000 2997 2994 2991 2986 2982 2980 2976 2970 2965 2960 2955 2951 2946 2941 2937 2932 2928 2924 2920 2917 2914 2912 2910 2908 2906 2905 2903 2901 2899 2897
3017 3015 3013 3012 3012 3011 3010 3008 3007 3004 3001 2999 2996 2993 2990 2987 2983 2978 2974 2970 2968 2961 2955 2951 2946 2942 2937 2933 2929 2924 2920 2916 2913 2910 2907 2905 2903 2901 2900 2898 2896 2895 2893 2891
3016 3015 3014 3011 3009 3007 3005 3003 3001 2999 2996 2994 2989 2985 2982 2979 2974 2970 2965 2959 2955 2950 2945 2942 2937 2933 2928 2924 2920 2916 2912 2909 2906 2903 2900 2898 2895 2893 2892 2891 2889 2887 2886 2884
3013 3011 3009 3008 3006 3003 3002 2999 2996 2994 2990 2987 2982 2978 2973 2969 2964 2956 2952 2948 2943 2939 2935 2931 2926 2923 2919 2915 2911 2908 2904 2901 2898 2896 2893 2890 2888 2885 2883 2881 2880 2878 2877 2875
3009 3007 3005 3003 3001 2999 2996 2993 2990 2987 2983 2979 2973 2968 2962 2956 2953 2947 2942 2937 2932 2926 2922 2918 2915 2911 2908 2905 2902 2899 2896 2894 2891 2888 2886 2883 2880 2877 2874 2872 2870 2868 2866 2865
3005 3003 3000 2998 2995 2992 2989 2986 2982 2978 2974 2969 2964 2959 2952 2946 2939 2935 2930 2925 2920 2916 2912 2909 2905 2901 2898 2895 2893 2890 2888 2885 2883 2880 2877 2874 2871 2868 2865 2862 2859 2857 2855 2854
2999 2997 2994 2992 2988 2985 2981 2976 2971 2966 2960 2955 2951 2945 2940 2935 2930 2924 2920 2915 2910 2906 2903 2900 2896 2892 2889 2887 2884 2881 2879 2877 2875 2872 2869 2866 2862 2859 2855 2852 2849 2847 2845 2844
2994 2992 2989 2986 2982 2978 2972 2966 2960 2955 2949 2942 2937 2932 2926 2922 2917 2913 2909 2904 2901 2897 2894 2891 2887 2884 2881 2878 2876 2873 2871 2868 2866 2863 2860 2857 2854 2850 2847 2843 2840 2838 2836 2835
Wind_Speed
13 10 10 11 12 14 16 17 16 19 20 14 15 18 19 22 25 28 30 28 28 28 29 32 38 37 36 36 37 40 42 45 47 48 48 47 47 46 45 42 39 35 33 28
16 15 14 16 17 19 20 21 24 23 23 16 15 17 21 25 29 29 28 28 28 28 31 37 34 33 35 37 39 41 44 46 47 48 47 47 48 46 44 39 36 33 28 26
7 14 16 18 23 23 24 26 23 22 16 17 17 18 19 20 22 26 27 27 28 32 35 34 33 36 37 38 40 41 43 45 46 47 47 47 46 44 41 37 34 30 27 25
6 8 2 18 18 17 20 21 23 23 19 18 19 18 20 21 22 25 27 28 32 35 35 35 35 36 35 38 39 41 43 45 45 45 45 44 42 40 37 34 31 28 25 25
6 10 17 16 20 21 23 21 23 24 19 19 18 22 23 21 20 25 27 30 32 32 33 34 33 33 36 38 40 42 44 44 44 44 42 40 40 38 35 32 29 26 24 23
11 6 6 13 15 16 18 28 28 22 17 16 21 26 19 16 19 24 28 34 36 32 32 31 32 35 36 38 40 42 43 42 42 41 40 40 39 35 33 30 26 24 23 23
20 16 13 19 22 21 14 22 12 11 16 26 26 24 21 21 23 27 30 33 31 28 28 30 34 36 38 40 41 42 41 39 40 40 40 39 36 34 31 28 26 25 23 22
11 10 12 15 18 18 17 17 17 23 26 29 27 26 25 23 25 31 33 28 25 25 28 32 35 38 39 40 41 41 39 38 38 39 39 36 34 33 30 27 26 24 23 23
13 13 18 23 26 27 24 24 27 32 31 29 29 29 29 27 31 29 32 22 22 25 29 34 37 38 39 40 40 39 37 37 38 39 37 33 33 32 28 26 24 23 22 22
25 25 25 25 27 27 28 30 30 31 30 30 30 30 30 26 35 33 18 18 22 27 32 35 37 37 39 40 40 39 37 36 37 38 35 32 31 29 26 25 24 22 21 21
29 29 29 26 27 27 29 30 30 30 31 30 32 28 29 36 29 22 15 19 25 30 34 36 36 37 39 40 40 38 37 36 36 37 34 32 29 27 25 24 23 21 20 21
31 25 27 28 28 29 31 32 32 33 32 29 28 31 35 33 17 11 16 23 29 34 35 35 36 37 38 40 39 37 36 36 36 35 33 30 28 27 25 23 22 21 19 20
33 31 33 32 31 30 29 30 30 28 26 27 30 34 32 23 9 14 22 27 32 33 33 35 35 36 37 37 37 36 35 34 33 32 31 29 27 26 24 23 22 21 20 19
28 28 30 26 28 29 30 29 27 27 27 27 37 30 14 7 12 20 26 29 30 31 33 34 35 35 35 34 34 34 34 32 30 30 29 28 26 24 23 23 21 20 20 19
31 31 31 32 32 32 31 30 27 27 34 30 28 10 5 11 18 24 27 27 28 31 33 34 34 33 31 33 34 34 33 31 29 29 28 27 25 24 23 23 22 21 19 19
33 32 31 31 31 30 29 28 31 33 33 19 4 8 15 19 25 25 25 26 29 31 33 34 32 30 32 34 33 33 32 30 29 29 28 26 23 23 22 22 21 20 19 19
28 28 28 29 29 25 25 31 30 22 14 5 10 14 17 24 25 24 26 28 30 33 35 35 33 33 35 36 34 32 30 29 28 28 27 25 22 22 22 22 21 20 19 19
25 26 24 21 26 26 22 20 16 18 17 13 19 22 23 25 24 25 29 30 32 35 35 35 35 34 36 36 34 31 29 29 27 27 26 24 22 22 22 22 21 21 20 20
19 16 15 16 16 15 14 9 10 17 24 26 26 25 24 24 26 29 33 35 35 36 36 35 36 36 36 35 33 31 30 28 27 26 24 23 22 22 22 22 21 21 20 19
1 1 3 6 7 9 14 20 25 27 27 26 24 25 25 27 31 34 36 38 37 37 38 37 37 37 37 36 34 31 29 28 27 26 24 23 23 23 23 23 22 20 20 20
7 7 10 13 18 21 22 23 25 27 27 26 27 28 30 32 35 36 38 41 38 38 37 36 36 37 37 35 34 31 29 28 27 26 25 24 24 25 26 26 25 24 21 19
13 18 20 20 20 22 26 29 29 28 28 29 30 33 35 37 40 41 41 41 40 40 39 37 36 36 35 33 33 31 28 28 27 26 25 25 25 25 26 28 29 28 27 26
15 16 18 22 24 25 25 26 27 28 29 32 35 38 41 43 45 46 45 43 42 41 40 39 38 37 35 33 32 30 27 26 26 26 25 25 26 27 28 30 30 32 33 33
18 20 21 22 24 24 25 26 29 31 35 38 41 44 46 46 47 42 40 41 42 42 41 39 38 37 34 32 31 29 27 26 26 26 26 27 28 29 30 30 32 32 32 32
20 20 22 23 25 28 30 33 36 39 41 43 45 44 42 41 43 43 41 41 39 34 32 34 35 33 32 31 29 27 27 27 27 28 28 29 29 30 31 31 31 32 33 33
21 23 24 27 30 33 37 40 43 45 46 47 48 47 45 42 40 39 38 36 34 31 30 32 32 31 30 28 28 27 27 27 27 28 28 28 29 30 30 30 30 29 29 31
24 25 27 30 35 39 42 45 46 47 48 48 49 47 46 44 42 40 38 36 32 31 30 28 30 30 29 27 27 27 26 25 26 27 26 28 30 30 31 31 30 27 27 28
Wind_Direction
230 236 223 229 240 244 250 261 254 281 283 288 283 276 271 269 260 264 274 274 270 273 281 286 290 311 310 306 312 316 318 318 318 319 320 321 321 321 320 317 315 315 312 307
237 243 242 248 252 256 258 260 260 272 286 296 289 278 273 274 272 272 267 267 272 279 281 292 313 303 305 309 313 316 317 318 319 320 322 322 322 322 320 318 316 316 313 304
241 251 255 265 258 260 263 268 263 263 296 284 288 285 287 285 280 269 265 271 278 283 296 307 304 306 307 310 314 317 318 319 319 321 322 321 322 323 320 318 316 315 308 300
251 240 290 258 265 265 265 259 258 273 282 281 286 283 287 284 276 266 270 279 284 299 307 305 305 306 308 313 315 317 318 319 320 319 320 322 324 322 320 318 317 315 308 306
234 231 268 263 276 280 283 272 271 277 269 284 284 291 293 293 282 274 278 282 293 297 300 303 304 307 311 314 316 317 318 318 318 320 321 323 323 323 321 321 319 316 312 311
247 245 225 283 278 279 271 263 278 273 269 288 299 297 306 283 275 279 289 293 295 297 300 301 304 308 310 313 315 317 316 316 318 320 320 322 323 322 323 321 318 314 311 313
254 253 267 277 279 273 249 291 293 258 274 301 299 302 292 285 289 285 290 292 294 300 298 302 306 308 311 314 315 315 314 315 318 320 320 321 322 321 322 318 315 314 312 315
248 247 269 277 272 272 296 291 290 297 301 302 302 306 303 294 291 290 286 298 296 295 298 304 307 310 311 312 313 312 312 315 318 322 320 319 321 320 318 314 313 312 312 316
258 266 282 295 297 298 293 284 293 303 304 302 300 302 300 290 289 285 300 291 291 296 303 306 307 308 310 310 311 312 313 314 317 322 321 318 319 317 314 311 310 309 309 312
279 283 291 293 297 295 295 294 294 295 295 293 292 294 293 285 291 297 286 291 297 302 305 308 308 309 310 310 312 313 312 313 317 322 321 319 318 314 311 310 310 308 308 310
287 294 298 294 292 292 288 287 288 286 288 280 285 283 274 285 272 273 291 303 303 308 313 311 310 309 311 312 312 311 311 313 317 319 320 318 317 312 310 309 309 309 305 307
295 302 294 295 292 288 287 288 287 285 285 283 280 277 282 266 264 304 310 310 318 314 310 309 310 312 312 311 313 313 312 313 315 317 318 315 314 309 309 307 308 308 303 304
300 298 294 293 294 293 289 287 286 286 284 283 277 277 261 262 297 317 312 318 315 310 308 310 313 315 314 316 317 317 315 314 314 316 317 313 313 310 307 307 308 308 304 304
297 297 294 296 294 293 293 294 295 293 282 285 277 245 244 333 319 322 317 315 310 310 312 316 318 319 319 320 319 319 317 316 315 316 316 311 310 309 307 307 306 304 303 301
299 298 298 296 296 296 295 295 295 277 271 270 243 244 332 322 320 319 317 311 312 314 318 321 323 321 321 320 319 318 317 315 313 315 315 311 307 306 305 307 306 302 297 295
295 296 294 293 293 292 291 292 287 278 251 229 270 322 339 317 324 314 309 314 318 321 324 325 323 320 322 321 319 319 317 314 314 314 313 312 306 304 304 307 305 299 294 293
294 293 293 292 294 295 293 280 254 229 240 251 344 322 306 323 311 309 315 319 322 326 325 324 321 319 322 323 320 319 317 316 312 312 311 310 303 301 302 304 307 300 293 291
290 288 291 294 302 286 265 235 252 259 252 294 330 335 323 310 305 312 319 324 323 323 323 320 318 318 319 320 317 317 317 315 313 311 309 307 300 301 301 303 307 308 296 290
290 296 300 280 263 256 252 286 320 325 334 338 333 320 310 307 311 318 321 323 321 318 318 316 314 315 316 318 315 313 314 313 312 310 307 304 299 299 300 302 308 310 305 293
253 337 302 335 334 314 320 326 333 333 329 322 315 313 311 312 316 318 317 317 319 315 313 314 313 312 312 315 314 311 311 310 309 309 304 301 298 296 296 297 301 306 307 301
339 336 332 337 336 334 330 323 321 320 318 315 312 312 312 314 314 313 313 312 316 307 308 310 309 309 309 309 311 310 310 309 307 305 302 299 297 295 294 293 292 294 296 301
334 332 333 332 323 318 317 317 315 313 312 312 314 314 313 313 312 311 311 309 309 306 306 305 304 305 305 306 309 309 310 307 305 303 301 298 296 292 289 288 289 288 286 288
324 321 318 315 312 311 311 312 312 312 312 313 313 312 311 311 312 311 311 310 307 305 302 301 300 300 302 302 306 307 306 306 305 305 304 303 301 296 289 286 286 284 283 283
316 315 315 315 313 311 309 308 308 309 310 310 310 311 311 311 310 310 308 308 307 303 302 300 299 299 300 300 302 303 302 303 303 303 304 305 304 301 296 290 284 286 288 286
313 312 310 308 307 307 307 306 307 308 308 308 308 309 309 308 307 309 308 309 310 305 305 305 305 303 300 299 299 298 300 300 301 303 305 306 308 308 304 298 292 287 285 288
308 308 308 308 308 309 310 310 309 310 310 309 309 309 309 309 308 308 307 308 311 308 303 303 305 304 302 299 297 296 297 298 301 304 306 309 311 312 309 304 298 293 290 288
304 304 305 304 304 306 309 310 310 310 310 309 309 310 310 309 309 307 305 304 305 303 306 305 307 307 303 299 297 298 297 299 303 304 305 310 312 312 310 306 302 297 293 293